Regional Weather Roundup
Issued by NWS

Home | Current Version | Previous Version | Text Only | Print | Product List | Glossary Off
Versions: 1 2 3 4 5 6 7 8 9 10 11 12 13 14 15 16 17 18 19 20 21 22 23 24 25 26 27 28 29 30 31 32 33 34 35 36 37 38 39 40 41 42 43 44 45 46 47 48 49 50

000
ASUS45 KBOU 052107
RWRCO

WEATHER ROUNDUP FOR COLORADO
NATIONAL WEATHER SERVICE DENVER/BOULDER CO
300 PM MDT TUE MAY 05 2015

NOTE: "FAIR" INDICATES FEW OR NO CLOUDS BELOW 12000 FEET WITH NO
SIGNIFICANT WEATHER AND/OR OBSTRUCTIONS TO VISIBILITY.

COZ001>005-013-030-031-052200-
...NORTHWEST COLORADO...

CITY           SKY/WX    TMP DP  RH WIND       PRES   REMARKS
CRAIG          PTSUNNY   66  39  37 N7        29.77F
HAYDEN         NOT AVBL
MEEKER         LGT RAIN  60  43  53 S10       29.80F
MOUNT WERNER   NOT AVBL
STEAMBOAT SPGS CLOUDY    63  37  38 SW7       29.78F
WALDEN         CLOUDY    59  32  36 CALM      29.86F
$$

COZ006>008-011-052200-
...WEST CENTRAL VALLEYS...

CITY           SKY/WX    TMP DP  RH WIND       PRES   REMARKS
GRAND JUNCTION CLOUDY    60  50  69 E5        29.79F
MONTROSE       LGT RAIN  53  47  79 W5        29.87S
EAGLE          PTSUNNY   64  36  34 S10G16    29.79F
RIFLE          CLOUDY    62  45  53 W22       29.77F
DELTA          CLOUDY    63  49  60 S12G21    29.82F
NUCLA          LGT RAIN  54  46  76 S6        29.90F
$$

COZ017>023-064>068-052200-
...SOUTHWEST COLORADO...

CITY           SKY/WX    TMP DP  RH WIND       PRES   REMARKS
DURANGO        CLOUDY    49  45  86 SW12G22   29.92S
CORTEZ         CLOUDY    54  46  74 CALM      29.90F
PAGOSA SPRINGS RAIN      45  44  97 E6        29.95F
TELLURIDE      RAIN      41  40  95 S3        29.99S
WOLF CREEK PAS NOT AVBL
$$

COZ009-010-012-014-032>034-037-058>063-052200-
...CENTRAL COLORADO...

CITY           SKY/WX    TMP DP  RH WIND       PRES   REMARKS
ASPEN          LGT RAIN  54  40  59 N10       29.84F
BUENA VISTA    NOT AVBL
COPPER MTN     CLOUDY    41  34  75 E5        30.06F
BERTHOUD PASS  SNOW      30  21  69 E13G25    30.10F VSB<1/4 WCI  20
COTTONWOOD PAS LGT RAIN  41  37  87 S6        29.98F
GUNNISON       CLOUDY    46  39  76 N3        29.92F
KREMMLING      LGT RAIN  59  34  38 SE8G21    29.83S
LEADVILLE      LGT RAIN  40  39  97 SW10      29.95F
MONARCH PASS   SNOW      32  32 100 SW9       30.15S VSB<1/4 WCI  24
SALIDA         CLOUDY    46  43  91 CALM      30.00S
SUNLIGHT       RAIN      41  37  87 N7        30.04S
WILKERSON PASS MIX PCPN  34  32  93 E9G18     30.05S VSB 1/4 WCI  26
$$

COZ069>075-052200-
...SAN LUIS VALLEY/SANGRE DE CRISTO MOUNTAINS...

CITY           SKY/WX    TMP DP  RH WIND       PRES   REMARKS
ALAMOSA        CLOUDY    52  34  50 CALM      29.88F
LA VETA PASS   SNOW      34  34 100 MISG      29.97F VSB 1/2
SAGUACHE       DRIZZLE   45  41  87 S6        29.93F
$$

COZ035-036-038>040-052200-
...NORTHERN COLORADO FRONT RANGE...

CITY           SKY/WX    TMP DP  RH WIND       PRES   REMARKS
DENVER INTL AP LGT RAIN  53  50  89 E16       29.88F
DMNS CITY PARK   N/A     51  50  97 SE12      29.87F
AURORA         LGT RAIN  52  52  99 E12       29.89F FOG
FRONT RANGE AP DRIZZLE   55  54  94 E12       29.89F
ERIE MUNI ARPT RAIN      53  51  96 N9        29.89F
BOULDER MUN AP LGT RAIN  52  52 100 N8        29.89F
CENTENNIAL     LGT RAIN  52  50  93 E10       29.88F
BROOMFIELD     RAIN      52  50  93 N12       29.90F
FORT COLLINS   CLOUDY    52  50  93 E14       29.91F
LONGMONT       LGT RAIN  55  52  92 N6        29.91F
$$

COZ041-046-047-076>085-087-088-052200-
...PIKES PEAK/PALMER DIVIDE AND SOUTHERN FOOTHILLS...

CITY           SKY/WX    TMP DP  RH WIND       PRES   REMARKS
COLO. SPRINGS  LGT RAIN  49  46  90 CALM      29.89F FOG
A. F. ACADEMY  LGT RAIN  48  47  99 SE3       29.89F
ELLICOTT       LGT RAIN N/A N/A N/A E12       29.86F
FALCON         LGT RAIN  47  45  94 E5        29.91F
FORT CARSON    LGT RAIN  50  49  99 NE6       29.86F
LIMON          LGT RAIN  52  49  89 E10       29.86F
MONUMENT HILL  LGT RAIN  45  43  93 SE8       29.91F
TRINIDAD       CLOUDY    58  48  69 N7        29.81F
$$

COZ042>045-048>051-090-091-052200-
...NORTHEAST COLORADO...

CITY           SKY/WX    TMP DP  RH WIND       PRES   REMARKS
GREELEY ARPT   CLOUDY    54  46  76 E13       29.91F
AKRON          LGT RAIN  54  52  93 E12       29.89F
BURLINGTON     LGT RAIN  56  54  93 SE30G36   29.82F FOG
WRAY           LGT RAIN  58  58 100 E16       29.88F
STERLING       RAIN      54  52  94 E6        29.90F
HOLYOKE        NOT AVBL
FORT MORGAN    LGT RAIN  53  51  93 E10       29.91F
$$

COZ086-089-092>099-052200-
...SOUTHEAST COLORADO...

CITY           SKY/WX    TMP DP  RH WIND       PRES   REMARKS
PUEBLO         LGT RAIN  54  51  90 E9        29.81F FOG
LA JUNTA       LGT RAIN  56  53  90 SW7       29.78F FOG
LAMAR          CLOUDY    61  56  83 SW8       29.75F
SPRINGFIELD      N/A     58  54  86 S15       29.80F
$$



USA.gov is the U.S. government's official web portal to all federal, state and local government web resources and services.